Location: *
(58.4167°N, 22.5000°E)
Time: 05:04:25
(UTC+00:00)

Cosmos 2297 - Pass Details

Date: 22 September 2019
Orbit: 835 x 860 km, 71.0° (Epoch: 16 October)

Event Time Altitude Azimuth Distance (km) Brightness Sun altitude
Exits shadow 23:38:04 42° 99° (E) 1,202 4.5 -29.6°
Drops below altitude 10° 23:42:56 10° 44° (NE) 2,493 7.0 -29.3°
Sets 23:45:30 0° 38° (NE) 3,437 8.0 -29.2°
